Simultaneous Nadir Overpasses (SNOs) Predictions

Prediction of SNOs between GOES-16 and TERRA Satellite Orbit:

Table of predicted SNOs for the next 14.0 days since TLE Epoch: 10/27/2018
Index Date Time (GOES-16) GOES-16 Lat,Lon TERRA Lat,Lon Distance(km) Time Diff (sec)
1 10/28/2018 15:27:24 0.01, -75.26 -0.27, -73.98 146.26 80
2 10/29/2018 03:48:48 -0.01, -75.26 -0.81, -79.17 444.02 80
3 10/30/2018 15:15:11 0.01, -75.28 -0.91, -71.02 484.62 80
4 10/31/2018 03:36:35 -0.00, -75.28 -0.17, -76.21 105.59 80
5 11/02/2018 03:21:41 -0.00, -75.30 0.41, -73.24 233.61 80
6 11/02/2018 15:42:57 0.00, -75.31 0.63, -78.41 351.53 80
7 11/04/2018 15:30:43 -0.00, -75.34 0.04, -75.44 11.52 80
8 11/06/2018 15:21:10 -0.00, -75.38 -0.61, -72.48 329.70 80
9 11/07/2018 03:42:34 0.00, -75.39 -0.47, -77.67 259.59 80
10 11/09/2018 03:27:41 0.01, -75.43 0.19, -74.72 81.98 80




NCC Satellite Simultaneous Nadir Overpasses (SNOs) Prediction Service
